Location: Gloden
(48.4833°N, 15.3167°E)
Time: 17:10:58
(UTC+00:00)

Orbus 7S? - Pass Details

Date: 15 December 2019
Orbit: 335 x 6436 km, 56.9° (Epoch: 11 November)

Event Time Altitude Azimuth Distance (km) Brightness Sun altitude
Exits shadow 05:03:52 34° 236° (WSW) 588 3.1 -15.6°
Maximum altitude 05:04:49 87° 325° (NW) 342 2.2 -15.4°
Drops below altitude 10° 05:07:31 10° 54° (NE) 1,399 5.9 -15.0°
Sets 05:09:48 0° 55° (NE) 2,516 7.2 -14.6°
